[[{"header":{"parameterUnit":"m.s-1","parameterCategory":1,"la1":30.2991,"la2":30.254,"lo1":-89.0895,"lo2":-89.0444,"dy":0.0017,"dx":0.0017,"nx":28,"ny":28,"refTime":"2024-08-05T21:00:00:Z","depth":0,"parameterNumber":2,"parameterNumberName":"U-component_of_WINDS"},"data":[0,0,0,0,0,0,0,0,0,0,0,0,0,0,0,0,0,0,0,0,0,0,0,0,0,0,0,0,0,0,0,0,0,0,0,0,0,0,0,0,0,0,0,0,0,0,0,0,0,0,0,0,0,0,0,0,0,0,2.5613,2.5613,0,2.5639,2.5639,2.564,2.5597,2.5596,2.5594,2.5593,2.5623,2.5625,2.5627,0,0,0,0,0,0,0,0,0,0,0,0,0,2.5532,2.5534,2.5613,2.5613,2.5613,2.5639,2.5639,2.564,2.5597,2.5596,2.5594,2.5592,2.5622,2.5625,2.5628,0,0,0,0,0,0,0,0,0,0,0,0,0,2.5564,2.5534,2.5613,2.5595,2.5594,2.5639,2.5639,2.564,2.5598,2.5596,2.5593,2.5591,2.5622,2.5625,2.5628,2.5692,0,0,2.5638,2.5639,0,0,0,0,0,0,0,0,2.5562,2.5567,2.5598,2.5597,2.5595,2.5612,2.5622,2.5658,2.5598,2.5596,2.5593,2.559,2.5622,2.5625,2.5635,2.5694,2.5695,2.5638,2.564,2.5642,2.5643,0,0,0,0,0,0,0,2.556,2.5565,2.5623,2.5598,2.5597,2.5588,2.559,2.5629,2.5621,2.5596,2.5593,2.5597,2.5621,2.5632,2.5635,2.5696,2.5638,2.5641,2.5643,2.5644,2.5815,2.5817,0,0,0,0,0,0,2.5559,2.5564,2.5622,2.5624,2.5573,2.5592,2.5594,2.5609,2.5621,2.562,2.5599,2.5595,2.5627,2.5631,2.5636,2.5715,2.5642,2.5645,2.5647,2.5812,2.5815,2.5818,0,0,0,0,0,0,2.5558,2.5565,2.5621,2.5593,2.56,2.5595,2.5613,2.5611,2.5622,2.5622,2.5621,2.5611,2.5626,2.5631,2.568,2.5716,2.5646,2.5649,2.5809,2.5813,2.5816,2.5873,0,0,0,0,0,0,2.5555,2.5564,2.5587,2.5594,2.5601,2.5663,2.5615,2.5613,2.5627,2.5622,2.5634,2.5633,2.5624,2.5675,2.5683,2.5719,2.5652,2.5806,2.5811,2.5815,2.5868,2.5878,2.5887,0,0,0,0,0,2.5553,2.5601,2.5588,2.5596,2.5629,2.5665,2.5669,2.5657,2.563,2.5654,2.5656,2.5633,2.5711,2.568,2.5689,2.5726,2.5803,2.5809,2.5815,2.5863,2.5876,2.5887,0,0,0,0,0,0,2.5599,2.5602,2.5587,2.5639,2.5652,2.5657,2.5687,2.567,2.5691,2.5686,2.5671,2.5674,2.5726,2.5731,2.5697,2.5792,2.5753,2.5761,2.5787,2.5799,2.5808,2.5807,2.5654,0,0,0,0,0,2.5615,2.5642,2.5644,2.569,2.5697,2.5691,2.5706,2.5696,2.5709,2.5714,2.5719,2.5734,2.5762,2.578,2.5806,2.5868,2.5873,2.5899,2.5909,2.5917,2.5924,2.5962,2.5975,2.5837,2.5837,2.5837,0,0,2.5648,2.5654,2.5671,2.5699,2.5708,2.5739,2.5696,2.5729,2.5753,2.5719,2.5766,2.577,2.5786,2.5843,2.5868,2.5849,2.5963,2.5924,2.593,2.5933,2.5969,2.5982,2.5994,2.5841,2.584,2.5839,0,0,2.5726,2.5731,2.5772,2.5782,2.5796,2.5793,2.5803,2.5812,2.5813,2.586,2.5837,2.5866,2.5913,2.5927,2.594,2.6028,2.601,2.6037,2.6088,2.6125,2.6136,2.6146,2.618,2.6193,2.6044,2.6044,2.6045,0,2.5766,2.581,2.5795,2.5831,2.5846,2.5818,2.5861,2.5872,2.5894,2.5906,2.5884,2.5946,2.5955,2.6016,2.6038,2.6049,2.6063,2.6036,2.6135,2.6145,2.6154,2.6187,2.6199,2.6048,2.6047,2.6047,2.6047,0,2.5861,2.5892,2.5923,2.5946,2.5964,2.6003,2.5997,2.6018,2.6008,2.6008,2.6058,2.6068,2.6097,2.6111,2.61,2.6173,2.6161,2.6137,2.6098,2.617,2.6201,2.6214,2.6053,2.6052,2.6051,2.605,0,0,2.5965,2.5982,2.5994,2.6006,2.6021,2.6046,2.6086,2.6115,2.6134,2.6152,2.6187,2.6231,2.621,2.6226,2.6217,2.625,2.6324,2.6223,2.6223,2.6243,2.6409,2.6428,2.6442,2.6312,2.6314,2.6316,2.6409,0,2.6044,2.6112,2.6102,2.6169,2.62,2.6176,2.6212,2.6227,2.6229,2.6258,2.6261,2.6293,2.6262,2.6272,2.6303,2.6308,2.6357,2.6301,2.6348,2.6349,2.6345,2.6458,2.6477,2.6564,2.642,2.6422,2.6424,0,2.6145,2.6167,2.6236,2.6251,2.6264,2.6296,2.6323,2.635,2.6368,2.6368,2.6388,2.6375,2.6419,2.6379,2.6441,2.6404,2.6423,2.6429,2.6432,2.6437,2.6391,2.6468,2.6591,2.6605,2.6442,2.644,2.6439,0,2.6218,2.6265,2.6313,2.6324,2.6341,2.6365,2.6374,2.639,2.641,2.6435,2.6448,2.6478,2.6495,2.652,2.6517,2.6487,2.6583,2.6541,2.6587,2.6587,2.6608,2.6607,2.6737,2.6617,2.6617,2.6617,2.6617,0,2.6308,2.6352,2.6347,2.6377,2.6428,2.6418,2.6469,2.6475,2.6491,2.6524,2.6505,2.6538,2.6531,2.6564,2.6563,2.6617,2.6624,2.6628,2.6627,2.6631,2.6631,2.6643,2.6638,2.662,2.662,2.6619,2.6618,0,2.6397,2.6395,2.6447,2.6461,2.6466,2.6503,2.6515,2.6546,2.6548,2.6591,2.6601,2.6605,2.6643,2.6643,2.6687,2.6686,2.6754,2.6746,2.6748,2.6747,2.6793,2.679,2.6938,2.6959,2.6823,2.6825,2.6826,0,2.6455,2.6489,2.6507,2.6528,2.6538,2.6572,2.6592,2.6585,2.6607,2.6634,2.6662,2.6699,2.6728,2.6792,2.6801,2.6836,2.6829,2.6879,2.6834,2.6838,2.6834,2.6832,2.6838,2.6888,2.6889,2.6891,2.6892,0,2.656,2.6558,2.6587,2.6617,2.6642,2.6665,2.6687,2.6706,2.6702,2.6729,2.6768,2.6791,2.6837,2.6876,2.691,2.6922,2.6909,2.6906,2.6919,2.6923,2.6924,2.6927,2.6774,2.6902,2.6901,2.6901,2.69,2.69,2.6637,2.6668,2.6686,2.672,2.6736,2.6758,2.6788,2.6795,2.6827,2.6864,2.6859,2.6904,2.6927,2.6972,2.6988,2.7025,2.7008,2.7026,2.7031,2.7036,2.7042,2.6917,2.7031,2.7031,2.7031,2.703,2.703,0,2.6743,2.6755,2.6786,2.6818,2.6846,2.6829,2.6854,2.6879,2.6919,2.694,2.697,2.7018,2.7057,2.707,2.7108,2.7136,2.7131,2.7147,2.7146,2.715,2.7054,2.704,2.7151,2.7151,2.7151,2.7151,2.7151,2.7151,2.6801,2.6853,2.6855,2.6916,2.6928,2.6971,2.6988,2.7009,2.7027,2.7081,2.7113,2.7121,2.7141,2.7181,2.7218,2.7221,2.7237,2.7256,2.7257,2.7168,2.7156,2.7144,2.7131,2.7259,2.7259,2.735,2.7351,2.7351]},{"header":{"parameterUnit":"m.s-1","parameterCategory":1,"la1":30.2991,"la2":30.254,"lo1":-89.0895,"lo2":-89.0444,"dy":0.0017,"dx":0.0017,"nx":28,"ny":28,"refTime":"2024-08-05T21:00:00:Z","depth":0,"parameterNumber":3,"parameterNumberName":"V-component_of_WINDS"},"data":[0,0,0,0,0,0,0,0,0,0,0,0,0,0,0,0,0,0,0,0,0,0,0,0,0,0,0,0,0,0,0,0,0,0,0,0,0,0,0,0,0,0,0,0,0,0,0,0,0,0,0,0,0,0,0,0,0,0,-1.1353,-1.1351,0,-1.1174,-1.1172,-1.117,-1.1182,-1.1185,-1.1187,-1.119,-1.0993,-1.0985,-1.0977,0,0,0,0,0,0,0,0,0,0,0,0,0,-1.1692,-1.1686,-1.1353,-1.1351,-1.1349,-1.1174,-1.1172,-1.1169,-1.1182,-1.1185,-1.1188,-1.1191,-1.0995,-1.0986,-1.0977,0,0,0,0,0,0,0,0,0,0,0,0,0,-1.1532,-1.1684,-1.1354,-1.1334,-1.1331,-1.1175,-1.1172,-1.1169,-1.1181,-1.1185,-1.1189,-1.1193,-1.0998,-1.0987,-1.0975,-1.0823,0,0,-1.094,-1.0935,0,0,0,0,0,0,0,0,-1.1541,-1.1519,-1.1339,-1.1335,-1.1331,-1.1205,-1.1219,-1.1052,-1.118,-1.1237,-1.119,-1.1195,-1.1059,-1.1043,-1.1,-1.0814,-1.0805,-1.0939,-1.0932,-1.0927,-1.0923,0,0,0,0,0,0,0,-1.1552,-1.1527,-1.1282,-1.1337,-1.1332,-1.133,-1.1312,-1.1187,-1.1127,-1.1233,-1.1233,-1.1213,-1.1057,-1.1011,-1.0995,-1.0802,-1.0939,-1.0929,-1.0922,-1.0917,-1.0478,-1.0473,0,0,0,0,0,0,-1.1569,-1.1536,-1.1288,-1.1277,-1.1449,-1.132,-1.13,-1.1241,-1.1129,-1.1116,-1.1209,-1.1214,-1.1029,-1.1009,-1.0988,-1.0799,-1.0927,-1.0916,-1.0909,-1.0482,-1.0477,-1.0471,0,0,0,0,0,0,-1.1577,-1.1547,-1.1295,-1.1406,-1.1374,-1.1311,-1.1244,-1.1235,-1.1189,-1.1111,-1.1099,-1.1174,-1.1031,-1.1005,-1.0864,-1.0793,-1.0911,-1.09,-1.0488,-1.048,-1.0474,-1.0422,0,0,0,0,0,0,-1.1586,-1.155,-1.1494,-1.1405,-1.1368,-1.1178,-1.124,-1.1229,-1.1171,-1.1175,-1.1075,-1.1062,-1.1032,-1.0881,-1.0852,-1.0779,-1.0891,-1.0494,-1.0484,-1.0476,-1.043,-1.0414,-1.0401,0,0,0,0,0,-1.1598,-1.1485,-1.1492,-1.1462,-1.1299,-1.1174,-1.1152,-1.1124,-1.1165,-1.1106,-1.1056,-1.1065,-1.0806,-1.0867,-1.0834,-1.0756,-1.0498,-1.0487,-1.0477,-1.0436,-1.0417,-1.0401,0,0,0,0,0,0,-1.1562,-1.1473,-1.1479,-1.1335,-1.1262,-1.1176,-1.1102,-1.1106,-1.1017,-1.1023,-1.0989,-1.0966,-1.0824,-1.0776,-1.0846,-1.0601,-1.0657,-1.0639,-1.0637,-1.0618,-1.0604,-1.0616,-1.0881,0,0,0,0,0,-1.1539,-1.1449,-1.1374,-1.1253,-1.1217,-1.1166,-1.111,-1.1095,-1.1017,-1.0985,-1.0925,-1.0844,-1.0744,-1.0679,-1.0583,-1.0424,-1.0399,-1.0354,-1.034,-1.0328,-1.0312,-1.022,-1.0197,-1.0437,-1.0437,-1.0437,0,0,-1.1486,-1.1426,-1.1371,-1.1244,-1.1187,-1.109,-1.1139,-1.1035,-1.0962,-1.0968,-1.0832,-1.0784,-1.0692,-1.0541,-1.0471,-1.0496,-1.0241,-1.0315,-1.0306,-1.0296,-1.0207,-1.0184,-1.0164,-1.043,-1.0431,-1.0432,0,0,-1.1342,-1.129,-1.1182,-1.1124,-1.1037,-1.1004,-1.0978,-1.0891,-1.0861,-1.0725,-1.0727,-1.0636,-1.0466,-1.04,-1.0343,-1.0173,-1.0176,-1.0142,-1.0065,-0.9976,-0.9957,-0.994,-0.9875,-0.9852,-1.0127,-1.0127,-1.0127,0,-1.1286,-1.1146,-1.1125,-1.102,-1.0962,-1.0968,-1.0855,-1.0798,-1.0683,-1.064,-1.0672,-1.0458,-1.0396,-1.0227,-1.0186,-1.0142,-1.0107,-1.0152,-0.9962,-0.9945,-0.9928,-0.9866,-0.9842,-1.0123,-1.0124,-1.0124,-1.0124,0,-1.108,-1.0981,-1.0904,-1.0797,-1.073,-1.0622,-1.058,-1.0514,-1.0505,-1.0467,-1.0326,-1.0253,-1.0141,-1.01,-1.0089,-0.9928,-0.9947,-0.9971,-1.0025,-0.9902,-0.9842,-0.9819,-1.0118,-1.0119,-1.012,-1.0121,0,0,-1.0905,-1.0789,-1.076,-1.0711,-1.0615,-1.0536,-1.0427,-1.0322,-1.0264,-1.0184,-1.0087,-0.9943,-0.9965,-0.9901,-0.9882,-0.9804,-0.9669,-0.9837,-0.9834,-0.9805,-0.9482,-0.9462,-0.9435,-0.9672,-0.9668,-0.9664,-0.9489,0,-1.0748,-1.0558,-1.0536,-1.0365,-1.0271,-1.0275,-1.0179,-1.0107,-1.0068,-0.9979,-0.9934,-0.9831,-0.987,-0.9831,-0.9755,-0.9702,-0.9603,-0.9715,-0.9576,-0.9571,-0.9596,-0.9405,-0.9383,-0.9221,-0.9466,-0.9462,-0.9459,0,-1.0539,-1.0457,-1.0278,-1.0194,-1.0153,-1.0068,-0.9968,-0.9885,-0.9802,-0.9779,-0.9708,-0.9699,-0.9579,-0.9642,-0.9475,-0.9551,-0.9493,-0.9459,-0.9451,-0.9434,-0.9505,-0.9378,-0.9169,-0.9144,-0.9423,-0.9426,-0.9428,0,-1.0424,-1.0269,-1.0141,-1.0099,-0.9999,-0.9938,-0.9892,-0.9814,-0.9751,-0.9663,-0.9621,-0.9519,-0.9461,-0.9379,-0.9341,-0.9391,-0.9174,-0.9234,-0.9146,-0.9147,-0.9097,-0.91,-0.8872,-0.9067,-0.9067,-0.9067,-0.9068,0,-1.0249,-1.0138,-1.0088,-1.0009,-0.9883,-0.9857,-0.9732,-0.9688,-0.9618,-0.9526,-0.9523,-0.9436,-0.9392,-0.9297,-0.9266,-0.9129,-0.9104,-0.9078,-0.907,-0.9076,-0.9078,-0.9034,-0.9043,-0.9061,-0.9062,-0.9064,-0.9065,0,-1.0098,-1.0062,-0.9922,-0.984,-0.9816,-0.9727,-0.9654,-0.9574,-0.9537,-0.9421,-0.9392,-0.9331,-0.9219,-0.9174,-0.9035,-0.9014,-0.8855,-0.8858,-0.8884,-0.8881,-0.8794,-0.8801,-0.8526,-0.8487,-0.8711,-0.8709,-0.8708,0,-0.9987,-0.9902,-0.9812,-0.9753,-0.9706,-0.9611,-0.9548,-0.9517,-0.9451,-0.935,-0.9281,-0.917,-0.908,-0.8899,-0.8839,-0.8732,-0.8729,-0.8641,-0.8713,-0.872,-0.8722,-0.8727,-0.8716,-0.8626,-0.8624,-0.8622,-0.862,0,-0.9791,-0.9778,-0.969,-0.9594,-0.952,-0.9443,-0.9367,-0.9317,-0.9274,-0.9199,-0.9087,-0.9017,-0.8877,-0.8764,-0.8654,-0.8602,-0.8601,-0.8599,-0.8572,-0.8575,-0.8592,-0.8577,-0.8843,-0.8604,-0.8606,-0.8607,-0.8608,-0.8608,-0.9654,-0.9578,-0.9502,-0.9403,-0.9344,-0.9273,-0.9194,-0.9148,-0.9055,-0.8942,-0.8929,-0.8807,-0.8722,-0.8575,-0.8518,-0.8419,-0.8441,-0.8403,-0.8392,-0.8382,-0.8375,-0.8612,-0.8399,-0.8399,-0.8399,-0.84,-0.84,0,-0.9455,-0.9407,-0.9317,-0.9212,-0.9133,-0.9147,-0.9062,-0.8993,-0.8888,-0.8812,-0.8724,-0.8592,-0.8484,-0.8416,-0.8305,-0.8238,-0.8234,-0.8209,-0.8211,-0.8198,-0.8363,-0.8396,-0.8214,-0.8214,-0.8214,-0.8214,-0.8214,-0.8214,-0.9342,-0.9213,-0.919,-0.9029,-0.898,-0.8865,-0.8815,-0.8747,-0.8687,-0.8542,-0.8453,-0.8412,-0.8337,-0.822,-0.8119,-0.8102,-0.8059,-0.8031,-0.8014,-0.8168,-0.8187,-0.8206,-0.8236,-0.8023,-0.8023,-0.7857,-0.7856,-0.7854]}]]